| time (UTC) | temp F | wind direction | speed knots | gust knots | rain 1hr in | rain 24hr in | rain mn in | humidity % | barometer mb |
| 20260902051503 | 60 | 4 | 7.0 | 12.2 | 0.00 | 0.01 | 0.00 | 90 | 1010.6 |
| 20260902050002 | 60 | 230 | 10.4 | 16.5 | 0.00 | 0.01 | 0.00 | 90 | 1010.5 |
| 20260902044559 | 60 | 198 | 7.0 | 15.6 | 0.00 | 0.01 | 0.00 | 90 | 1010.4 |
| 20260902043104 | 60 | 230 | 8.7 | 17.4 | 0.00 | 0.01 | 0.00 | 90 | 1010.5 |
| 20260902041555 | 59 | 252 | 8.7 | 13.9 | 0.00 | 0.01 | 0.00 | 90 | 1010.4 |
| 20260902040054 | 60 | 4 | 6.1 | 16.5 | 0.00 | 0.01 | 0.00 | 90 | 1010.6 |
| 20260902034553 | 60 | 4 | 6.1 | 14.8 | 0.00 | 0.01 | 0.00 | 90 | 1010.6 |
| 20260902033104 | 60 | 4 | 7.0 | 13.9 | 0.00 | 0.01 | 0.00 | 88 | 1010.6 |
| 20260902031550 | 60 | 4 | 6.1 | 14.8 | 0.00 | 0.01 | 0.00 | 88 | 1010.7 |
| 20260902030047 | 60 | 215 | 6.1 | 13.0 | 0.00 | 0.01 | 0.00 | 88 | 1010.8 |
| 20260902024544 | 60 | 201 | 7.8 | 13.9 | 0.00 | 0.01 | 0.00 | 87 | 1010.8 |
| 20260902023046 | 60 | 4 | 4.3 | 12.2 | 0.00 | 0.01 | 0.00 | 87 | 1010.9 |
| 20260902021540 | 60 | 211 | 6.1 | 10.4 | 0.00 | 0.01 | 0.00 | 86 | 1011.0 |
| 20260902020039 | 59 | 225 | 4.3 | 11.3 | 0.00 | 0.01 | 0.00 | 86 | 1011.1 |
| 20260902014539 | 59 | 4 | 6.1 | 12.2 | 0.00 | 0.01 | 0.00 | 86 | 1011.1 |
| 20260902013035 | 59 | 181 | 5.2 | 9.6 | 0.00 | 0.01 | 0.00 | 85 | 1011.2 |
| 20260902011533 | 59 | 4 | 6.1 | 10.4 | 0.00 | 0.01 | 0.00 | 85 | 1011.3 |
| 20260902010042 | 59 | 4 | 5.2 | 13.0 | 0.00 | 0.01 | 0.00 | 84 | 1011.5 |
| 20260902004531 | 59 | 4 | 7.8 | 12.2 | 0.00 | 0.01 | 0.00 | 84 | 1011.5 |
| 20260902003028 | 59 | 261 | 5.2 | 12.2 | 0.00 | 0.01 | 0.00 | 84 | 1011.7 |
| 20260902001527 | 59 | 4 | 5.2 | 8.7 | 0.00 | 0.01 | 0.00 | 83 | 1011.7 |
| 20260902000027 | 59 | 274 | 7.0 | 12.2 | 0.00 | 0.01 | 0.00 | 83 | 1011.8 |
| 20260901234523 | 59 | 208 | 5.2 | 9.6 | 0.00 | 0.01 | 0.00 | 83 | 1011.8 |
| 20260901233022 | 59 | 246 | 3.5 | 9.6 | 0.00 | 0.01 | 0.00 | 82 | 1011.8 |
| 20260901231522 | 59 | 215 | 5.2 | 10.4 | 0.00 | 0.01 | 0.00 | 82 | 1012.0 |
| 20260901230034 | 59 | 257 | 0.9 | 7.8 | 0.00 | 0.01 | 0.00 | 82 | 1011.9 |
| 20260901224520 | 59 | 225 | 4.3 | 9.6 | 0.00 | 0.01 | 0.00 | 82 | 1011.9 |
| 20260901223016 | 59 | 218 | 2.6 | 13.9 | 0.00 | 0.01 | 0.00 | 81 | 1011.9 |
| 20260901221515 | 59 | 4 | 5.2 | 12.2 | 0.00 | 0.01 | 0.00 | 81 | 1012.0 |
| 20260901220011 | 59 | 268 | 3.5 | 13.9 | 0.00 | 0.01 | 0.00 | 82 | 1012.0 |
| 20260901214509 | 59 | 257 | 5.2 | 12.2 | 0.00 | 0.01 | 0.01 | 82 | 1011.9 |
| 20260901213025 | 59 | 281 | 8.7 | 15.6 | 0.00 | 0.01 | 0.01 | 81 | 1011.8 |
| 20260901211507 | 59 | 243 | 7.8 | 14.8 | 0.00 | 0.01 | 0.01 | 83 | 1011.6 |
| 20260901210016 | 60 | 4 | 6.1 | 14.8 | 0.00 | 0.01 | 0.01 | 82 | 1011.7 |
| 20260901204505 | 60 | 225 | 7.0 | 14.8 | 0.00 | 0.01 | 0.01 | 82 | 1011.7 |
| 20260901203006 | 60 | 230 | 7.0 | 13.9 | 0.00 | 0.01 | 0.01 | 83 | 1011.5 |
| 20260901201502 | 60 | 238 | 7.8 | 16.5 | 0.00 | 0.01 | 0.01 | 82 | 1011.5 |
| 20260901200100 | 60 | 273 | 8.7 | 15.6 | 0.00 | 0.01 | 0.01 | 83 | 1011.6 |
| 20260901194558 | 61 | 238 | 9.6 | 13.9 | 0.00 | 0.01 | 0.01 | 83 | 1011.4 |
| 20260901193101 | 61 | 200 | 5.2 | 11.3 | 0.00 | 0.01 | 0.01 | 84 | 1011.3 |
| 20260901191600 | 61 | 4 | 6.1 | 11.3 | 0.00 | 0.01 | 0.01 | 84 | 1011.3 |
| 20260901190054 | 61 | 4 | 6.1 | 12.2 | 0.00 | 0.01 | 0.01 | 83 | 1011.2 |
| 20260901184554 | 61 | 253 | 5.2 | 11.3 | 0.00 | 0.01 | 0.01 | 84 | 1011.3 |
| 20260901183054 | 61 | 4 | 3.5 | 12.2 | 0.00 | 0.01 | 0.01 | 83 | 1011.2 |
| 20260901181552 | 61 | 265 | 1.7 | 9.6 | 0.00 | 0.01 | 0.01 | 83 | 1011.2 |
| 20260901180052 | 61 | 4 | 4.3 | 12.2 | 0.00 | 0.01 | 0.01 | 83 | 1011.3 |
| 20260901174551 | 61 | 238 | 4.3 | 9.6 | 0.00 | 0.05 | 0.01 | 83 | 1011.1 |
| 20260901173050 | 61 | 269 | 4.3 | 7.8 | 0.00 | 0.05 | 0.01 | 82 | 1011.0 |
| 20260901171555 | 61 | 217 | 3.5 | 9.6 | 0.00 | 0.05 | 0.01 | 82 | 1011.0 |
| 20260901170050 | 62 | 4 | 6.1 | 10.4 | 0.00 | 0.05 | 0.01 | 81 | 1011.1 |
| 20260901164548 | 62 | 4 | 7.0 | 12.2 | 0.00 | 0.15 | 0.01 | 81 | 1010.9 |
| 20260901163046 | 62 | 252 | 2.6 | 6.1 | 0.00 | 0.15 | 0.01 | 82 | 1010.7 |
| 20260901161545 | 62 | 243 | 6.1 | 11.3 | 0.00 | 0.15 | 0.01 | 79 | 1010.7 |
| 20260901160046 | 63 | 4 | 4.3 | 10.4 | 0.00 | 0.15 | 0.01 | 78 | 1010.6 |
| 20260901154543 | 64 | 250 | 3.5 | 12.2 | 0.00 | 0.17 | 0.01 | 78 | 1010.5 |
| 20260901153042 | 64 | 228 | 7.8 | 13.0 | 0.00 | 0.17 | 0.01 | 76 | 1010.4 |
| 20260901151542 | 65 | 271 | 6.1 | 14.8 | 0.00 | 0.17 | 0.01 | 77 | 1010.3 |
| 20260901150041 | 66 | 239 | 4.3 | 10.4 | 0.00 | 0.17 | 0.01 | 75 | 1010.3 |
| 20260901144540 | 65 | 225 | 3.5 | 13.0 | 0.00 | 0.24 | 0.01 | 76 | 1010.4 |
| 20260901143041 | 66 | 225 | 3.5 | 10.4 | 0.00 | 0.24 | 0.01 | 75 | 1010.1 |
| 20260901141552 | 65 | 209 | 4.3 | 9.6 | 0.00 | 0.24 | 0.01 | 76 | 1010.2 |
| 20260901140043 | 65 | 246 | 5.2 | 10.4 | 0.00 | 0.24 | 0.01 | 75 | 1010.2 |
| 20260901134539 | 65 | 236 | 7.0 | 11.3 | 0.00 | 0.24 | 0.01 | 74 | 1010.2 |
| 20260901133041 | 67 | 215 | 5.2 | 10.4 | 0.00 | 0.24 | 0.01 | 77 | 1010.1 |
| 20260901131538 | 65 | 208 | 4.3 | 8.7 | 0.00 | 0.24 | 0.01 | 77 | 1010.2 |
| 20260901130037 | 67 | 194 | 7.0 | 14.8 | 0.00 | 0.24 | 0.01 | 74 | 1010.2 |
| 20260901124536 | 68 | 209 | 4.3 | 12.2 | 0.00 | 0.24 | 0.01 | 75 | 1010.1 |
| 20260901123034 | 67 | 188 | 4.3 | 9.6 | 0.00 | 0.24 | 0.01 | 76 | 1010.0 |
| 20260901121537 | 66 | 244 | 4.3 | 13.0 | 0.00 | 0.24 | 0.01 | 79 | 1010.1 |
| 20260901120042 | 64 | 281 | 4.3 | 8.7 | 0.00 | 0.24 | 0.01 | 79 | 1010.1 |
| 20260901114534 | 65 | 211 | 4.3 | 8.7 | 0.00 | 0.24 | 0.01 | 76 | 1010.0 |
| 20260901113031 | 65 | 216 | 5.2 | 8.7 | 0.00 | 0.24 | 0.01 | 77 | 1010.0 |
| 20260901111529 | 68 | 240 | 6.1 | 8.7 | 0.00 | 0.24 | 0.01 | 73 | 1010.0 |
| 20260901110032 | 65 | 240 | 2.6 | 7.8 | 0.00 | 0.24 | 0.01 | 76 | 1009.9 |
| 20260901104530 | 65 | 180 | 3.5 | 6.1 | 0.00 | 0.24 | 0.01 | 77 | 1009.8 |
| 20260901103024 | 63 | 225 | 3.5 | 7.8 | 0.00 | 0.24 | 0.01 | 84 | 1009.7 |
| 20260901101520 | 63 | 210 | 4.3 | 7.8 | 0.00 | 0.24 | 0.01 | 83 | 1009.6 |
| 20260901100020 | 63 | 240 | 4.3 | 12.2 | 0.00 | 0.24 | 0.01 | 85 | 1009.4 |
| 20260901094521 | 63 | 238 | 1.7 | 7.0 | 0.00 | 0.24 | 0.01 | 86 | 1009.2 |
| 20260901093016 | 63 | 211 | 2.6 | 7.8 | 0.00 | 0.24 | 0.01 | 82 | 1009.0 |
| 20260901091514 | 64 | 267 | 1.7 | 7.0 | 0.00 | 0.24 | 0.01 | 82 | 1008.9 |
| 20260901090013 | 64 | 243 | 3.5 | 6.1 | 0.00 | 0.24 | 0.01 | 80 | 1008.6 |
| 20260901084510 | 64 | 227 | 3.5 | 8.7 | 0.00 | 0.24 | 0.01 | 83 | 1008.6 |
| 20260901083018 | 62 | 240 | 3.5 | 7.0 | 0.00 | 0.24 | 0.01 | 86 | 1008.8 |
| 20260901081505 | 62 | 226 | 1.7 | 6.1 | 0.00 | 0.24 | 0.01 | 88 | 1008.5 |
| 20260901080003 | 61 | 257 | 0.9 | 6.1 | 0.00 | 0.24 | 0.01 | 90 | 1008.3 |
| 20260901074501 | 62 | 276 | 1.7 | 4.3 | 0.01 | 0.24 | 0.01 | 91 | 1008.4 |
| 20260901073058 | 61 | 239 | 2.6 | 7.0 | 0.01 | 0.24 | 0.01 | 94 | 1008.3 |
| 20260901071601 | 59 | 243 | 0.9 | 4.3 | 0.01 | 0.24 | 0.01 | 95 | 1008.3 |
| 20260901070053 | 60 | 273 | 2.6 | 4.3 | 0.01 | 0.24 | 0.01 | 96 | 1008.1 |
| 20260901064551 | 60 | 201 | 0.9 | 3.5 | 0.00 | 0.24 | 0.00 | 96 | 1008.0 |
| 20260901063048 | 58 | 236 | 0.0 | 0.0 | 0.00 | 0.24 | 0.00 | 96 | 1008.0 |
| 20260901061546 | 57 | 236 | 0.0 | 0.0 | 0.00 | 0.24 | 0.00 | 96 | 1007.8 |
| 20260901060045 | 58 | 236 | 0.0 | 0.0 | 0.00 | 0.24 | 0.00 | 96 | 1007.8 |
| 20260901054545 | 57 | 236 | 0.0 | 0.0 | 0.00 | 0.24 | 0.00 | 95 | 1007.8 |
| 20260901053045 | 57 | 236 | 0.0 | 0.0 | 0.00 | 0.24 | 0.00 | 95 | 1007.7 |